Regional Weather Roundup
Issued by NWS

Home | Current Version | Previous Version | Text Only | Print | Product List | Glossary Off
Versions: 1 2 3 4 5 6 7 8 9 10 11 12 13 14 15 16 17 18 19 20 21 22 23 24 25 26 27 28 29 30 31 32 33 34 35 36 37 38 39 40 41 42 43 44 45 46 47 48 49 50

000
ASUS43 KOAX 172002
RWRNE

WEATHER ROUNDUP FOR NEBRASKA
NATIONAL WEATHER SERVICE OMAHA NE
200 PM CST SAT FEB 17 2018

NOTES: SATELLITE DATA IS BEING USED TO AUGMENT CLOUD COVER ABOVE
       12000 FEET.
       "FAIR" INDICATES FEW OR NO CLOUDS BELOW 12,000 FEET WITH NO
       SIGNIFICANT WEATHER AND/OR OBSTRUCTIONS TO VISIBILITY.


NEZ001>004-019>022-054>056-172100-
NEBRASKA PANHANDLE

CITY           SKY/WX    TMP DP  RH WIND       PRES   REMARKS
SCOTTSBLUFF    MOSUNNY   51  15  23 W22G30    29.96F
ALLIANCE       SUNNY     45  15  30 W12G21    29.96F
CHADRON        SUNNY     33  23  66 SE5       29.99F WCI  29
GORDON         FAIR      36  21  55 W10       29.99F WCI  28
KIMBALL        SUNNY     48  12  23 NW24G33   29.98F
SIDNEY         SUNNY     49  10  20 NW24G38   30.00F
$$

NEZ057>060-069>072-079>082-172100-
SOUTHWEST NEBRASKA

CITY           SKY/WX    TMP DP  RH WIND       PRES   REMARKS
NORTH PLATTE   SUNNY     47  21  35 NW15      30.05F
IMPERIAL       SUNNY     48  18  30 NW14      30.06F
LEXINGTON      SUNNY     45  27  50 NW12      30.06S
MCCOOK         SUNNY     48  23  37 W16G22    30.08F
OGALLALA       SUNNY     48  18  30 NW20G28   30.04F
$$

NEZ005>010-023>029-035>040-094-172100-
NORTH CENTRAL NEBRASKA

CITY           SKY/WX    TMP DP  RH WIND       PRES   REMARKS
VALENTINE      MOSUNNY   38  23  55 NW16      30.03F WCI  29
AINSWORTH      CLOUDY    36  24  63 NW14G20   30.04S WCI  27
BROKEN BOW     SUNNY     43  24  47 NW15      30.04S
O`NEILL        SUNNY     40  27  60 NW17      30.03F WCI  31
ORD            SUNNY     44  25  47 NW13      30.04R
THEDFORD       SUNNY     42  21  42 NW14      30.04F
$$

NEZ041-046>049-061>064-073>077-083>087-172100-
SOUTH CENTRAL NEBRASKA

CITY           SKY/WX    TMP DP  RH WIND       PRES   REMARKS
GRAND ISLAND   SUNNY     47  24  40 W13       30.06S
AURORA         SUNNY     47  22  37 NW18      30.05S
HASTINGS       SUNNY     47  21  35 NW16G24   30.06F
HEBRON         SUNNY     52  19  26 NW15G21   30.08S
HOLDREGE       SUNNY     47  23  37 NW15G22   30.07F
KEARNEY        SUNNY     46  24  42 NW15      30.06F
YORK           SUNNY     46  25  42 NW16      30.05S
$$

NEZ011>018-030>034-042>045-172100-
NORTHEAST NEBRASKA

CITY           SKY/WX    TMP DP  RH WIND       PRES   REMARKS
NORFOLK        SUNNY     40  26  57 NW16G22   30.03R WCI  31
ALBION         SUNNY     43  26  49 NW15      30.03R
BLAIR          SUNNY     44  27  51 NW13G18   30.03R
COLUMBUS       SUNNY     40  26  57 NW13      30.05S WCI  32
FREMONT        SUNNY     46  24  43 NW15G21   30.04S
TEKAMAH        SUNNY     43  28  55 NW18      30.03S
WAYNE          SUNNY     37  27  66 N15       30.03R WCI  28
$$

NEZ050>053-065>068-078-088>093-172100-
SOUTHEAST NEBRASKA

CITY           SKY/WX    TMP DP  RH WIND       PRES   REMARKS
LINCOLN        SUNNY     49  21  33 NW15      30.07R
OMAHA EPPLEY   MOSUNNY   47  26  44 NW14      30.02S
BEATRICE       SUNNY     52  22  31 W15G21    30.07R
FALLS CITY     SUNNY     50  22  33 NW22      30.06R
NEBRASKA CITY  SUNNY     49  26  41 NW15G22   30.05R
PLATTSMOUTH    SUNNY     46  28  50 W14       30.04R
$$

NEZ044-045-051>053-067-172100-
OMAHA AREA

CITY           SKY/WX    TMP DP  RH WIND       PRES   REMARKS
OMAHA EPPLEY   MOSUNNY   47  26  44 NW14      30.02S
BLAIR          SUNNY     44  27  51 NW13G18   30.03R
FREMONT        SUNNY     46  24  43 NW15G21   30.04S
MILLARD        SUNNY     47  25  42 NW16G23   30.04R
OFFUTT AFB     SUNNY     47  26  43 NW15      30.03R
PLATTSMOUTH    SUNNY     46  28  50 W14       30.04R
WAHOO          FAIR      45  27  48 NW13      30.05R
$$




USA.gov is the U.S. government's official web portal to all federal, state and local government web resources and services.